Temp
-4 -4 -5 -5 -5 -5 -6 -6 -6 -7 -7 -7 -7 -7 -7 -7 -7 -7 -7 -7 -7 -7 -7 -7 -7 -7 -7 -7 -7 -7 -7 -8 -7 -7 -7 -7 -8 -8 -9 -9 -9 -9 -9
-5 -5 -5 -5 -5 -5 -6 -6 -6 -7 -7 -7 -7 -7 -6 -7 -7 -7 -7 -7 -7 -7 -7 -7 -7 -7 -7 -7 -7 -7 -7 -7 -7 -7 -7 -7 -8 -8 -8 -9 -9 -9 -9
-5 -5 -4 -5 -5 -5 -6 -6 -7 -7 -6 -7 -7 -7 -7 -7 -7 -7 -7 -7 -8 -8 -8 -8 -8 -8 -8 -8 -7 -7 -7 -7 -7 -7 -7 -7 -8 -8 -8 -9 -9 -9 -9
-5 -5 -5 -5 -6 -6 -6 -6 -6 -6 -6 -7 -7 -7 -7 -7 -7 -7 -8 -8 -7 -7 -7 -7 -8 -8 -8 -8 -8 -8 -8 -7 -7 -7 -7 -7 -8 -8 -9 -8 -9 -9 -9
-5 -5 -5 -5 -6 -6 -6 -6 -6 -6 -6 -7 -7 -7 -7 -7 -7 -7 -7 -7 -7 -7 -7 -7 -8 -7 -7 -8 -8 -8 -8 -8 -7 -7 -7 -7 -8 -8 -8 -8 -8 -8 -8
-4 -5 -5 -5 -6 -6 -6 -6 -6 -6 -6 -7 -7 -7 -7 -7 -7 -7 -7 -7 -7 -7 -7 -7 -7 -7 -7 -7 -8 -8 -8 -8 -7 -7 -7 -8 -8 -8 -8 -8 -8 -8 -8
-4 -5 -5 -5 -6 -6 -6 -6 -6 -6 -7 -7 -7 -7 -7 -7 -7 -7 -8 -8 -7 -7 -7 -7 -7 -7 -7 -7 -7 -8 -8 -8 -8 -7 -8 -8 -8 -8 -8 -8 -8 -8 -8
-5 -5 -5 -5 -6 -6 -5 -6 -6 -7 -7 -7 -7 -7 -7 -7 -7 -7 -7 -7 -7 -7 -7 -7 -7 -7 -7 -6 -7 -8 -8 -8 -8 -8 -8 -8 -8 -8 -8 -8 -8 -8 -8
-5 -5 -5 -5 -6 -6 -5 -6 -6 -7 -7 -7 -6 -7 -7 -7 -7 -7 -6 -7 -7 -7 -7 -7 -7 -7 -7 -7 -7 -8 -9 -8 -8 -8 -8 -8 -8 -8 -8 -8 -8 -8 -8
-4 -5 -5 -5 -5 -6 -6 -6 -6 -6 -6 -6 -6 -6 -6 -6 -7 -7 -7 -7 -7 -7 -7 -7 -7 -7 -7 -8 -7 -8 -8 -8 -8 -8 -8 -8 -8 -8 -8 -8 -9 -9 -9
-5 -5 -5 -5 -6 -6 -6 -5 -5 -6 -6 -6 -6 -6 -6 -6 -7 -7 -7 -7 -7 -7 -7 -7 -7 -7 -7 -7 -8 -8 -8 -8 -8 -8 -8 -8 -8 -8 -8 -9 -9 -9 -9
-5 -5 -5 -5 -6 -6 -5 -5 -5 -6 -6 -5 -6 -6 -6 -6 -7 -6 -7 -7 -7 -7 -7 -6 -7 -6 -7 -7 -7 -7 -7 -8 -8 -8 -8 -9 -8 -8 -9 -9 -9 -9 -9
-4 -5 -5 -5 -5 -5 -5 -5 -5 -5 -5 -6 -6 -6 -6 -6 -7 -7 -7 -7 -7 -7 -7 -7 -6 -7 -7 -6 -7 -7 -7 -7 -7 -8 -8 -8 -8 -8 -8 -8 -8 -8 -9
-5 -5 -5 -5 -5 -5 -5 -5 -5 -6 -5 -6 -6 -6 -6 -7 -7 -7 -7 -7 -7 -7 -7 -6 -7 -7 -7 -7 -6 -6 -7 -7 -7 -7 -7 -7 -8 -8 -8 -8 -8 -8 -8
-5 -5 -5 -5 -5 -5 -5 -6 -5 -6 -6 -6 -6 -6 -6 -7 -7 -6 -6 -7 -7 -7 -7 -7 -6 -7 -7 -6 -6 -6 -6 -6 -6 -7 -7 -7 -7 -7 -7 -7 -7 -7 -8
-5 -5 -5 -5 -5 -5 -6 -6 -6 -6 -6 -6 -5 -6 -6 -7 -6 -7 -6 -7 -6 -6 -7 -7 -7 -6 -6 -6 -6 -6 -6 -6 -6 -6 -7 -7 -7 -7 -7 -7 -8 -8 -8
-5 -5 -5 -4 -5 -5 -6 -6 -6 -6 -5 -5 -6 -6 -6 -6 -7 -6 -6 -6 -6 -6 -6 -6 -6 -6 -6 -6 -6 -6 -6 -6 -6 -6 -6 -7 -7 -7 -7 -7 -8 -8 -8
-5 -5 -5 -5 -5 -5 -6 -6 -6 -5 -5 -5 -6 -6 -6 -6 -6 -6 -6 -6 -6 -6 -6 -6 -6 -6 -7 -7 -6 -6 -6 -7 -6 -6 -6 -7 -7 -7 -7 -7 -7 -7 -7
-6 -5 -5 -5 -5 -5 -6 -6 -5 -5 -5 -5 -6 -6 -6 -6 -6 -6 -6 -6 -6 -6 -6 -6 -7 -6 -6 -7 -6 -6 -6 -6 -7 -7 -6 -6 -7 -7 -8 -7 -7 -7 -7
-5 -5 -5 -5 -5 -5 -5 -5 -5 -5 -5 -5 -6 -6 -6 -6 -5 -6 -6 -6 -6 -7 -7 -6 -6 -6 -6 -6 -5 -6 -6 -6 -6 -7 -6 -7 -7 -7 -7 -7 -7 -7 -7
-5 -5 -5 -5 -5 -5 -5 -6 -5 -5 -5 -5 -6 -6 -6 -6 -6 -6 -6 -6 -6 -6 -6 -6 -6 -6 -6 -6 -6 -6 -6 -6 -6 -6 -6 -6 -7 -7 -7 -7 -7 -7 -7
-5 -5 -5 -5 -5 -5 -5 -5 -5 -5 -5 -5 -6 -6 -6 -6 -6 -6 -6 -5 -5 -5 -6 -5 -6 -6 -6 -6 -5 -6 -6 -6 -6 -6 -7 -6 -7 -7 -6 -6 -6 -6 -7
-5 -5 -5 -5 -5 -5 -5 -5 -5 -5 -5 -5 -5 -5 -5 -5 -6 -5 -5 -5 -5 -5 -5 -5 -5 -6 -6 -6 -6 -6 -6 -6 -6 -6 -6 -6 -6 -6 -6 -7 -6 -6 -7
-5 -5 -5 -5 -5 -5 -5 -5 -5 -5 -5 -5 -5 -5 -5 -5 -6 -5 -5 -5 -5 -5 -5 -5 -5 -6 -6 -7 -6 -6 -6 -6 -6 -6 -7 -7 -7 -6 -6 -7 -7 -6 -7
-5 -5 -5 -5 -5 -4 -4 -5 -5 -4 -4 -5 -5 -5 -5 -6 -5 -6 -5 -5 -5 -5 -5 -5 -5 -5 -5 -6 -6 -7 -6 -7 -7 -7 -7 -7 -7 -7 -7 -7 -7 -6 -7
-5 -4 -4 -4 -4 -4 -4 -4 -4 -4 -4 -4 -4 -5 -5 -6 -6 -5 -6 -5 -5 -5 -5 -5 -5 -5 -5 -6 -6 -6 -7 -7 -7 -7 -7 -7 -7 -7 -7 -7 -7 -7 -7
Height
5897 5897 5897 5898 5898 5897 5897 5896 5897 5898 5900 5901 5902 5903 5904 5905 5905 5905 5905 5905 5906 5906 5907 5907 5907 5907 5906 5906 5906 5905 5905 5904 5903 5904 5905 5906 5908 5910 5912 5913 5914 5915 5916
5898 5899 5899 5898 5900 5899 5899 5898 5899 5900 5902 5902 5903 5905 5906 5907 5907 5907 5907 5908 5908 5909 5909 5909 5909 5908 5908 5908 5907 5907 5906 5906 5905 5905 5906 5908 5910 5911 5912 5914 5915 5917 5917
5899 5899 5900 5899 5901 5901 5900 5900 5901 5902 5903 5903 5904 5906 5907 5908 5908 5909 5909 5910 5911 5911 5911 5911 5910 5909 5909 5908 5908 5908 5908 5907 5907 5907 5908 5910 5911 5913 5914 5915 5917 5918 5919
5899 5901 5901 5900 5901 5902 5902 5901 5902 5903 5904 5905 5906 5907 5909 5910 5910 5911 5911 5912 5912 5912 5912 5911 5911 5910 5909 5908 5907 5908 5908 5909 5908 5908 5910 5911 5913 5915 5916 5917 5918 5919 5920
5900 5902 5903 5902 5902 5903 5903 5903 5904 5905 5906 5907 5908 5908 5910 5911 5911 5912 5913 5913 5913 5913 5912 5912 5911 5909 5908 5907 5906 5907 5909 5911 5910 5910 5912 5913 5915 5917 5918 5919 5920 5921 5921
5902 5902 5903 5903 5903 5903 5903 5905 5906 5907 5908 5909 5910 5910 5911 5912 5911 5912 5914 5914 5914 5915 5914 5914 5913 5911 5908 5907 5906 5907 5910 5912 5912 5913 5914 5916 5917 5919 5920 5921 5922 5922 5922
5902 5904 5904 5904 5904 5904 5905 5906 5907 5909 5910 5911 5911 5912 5912 5912 5913 5913 5915 5916 5917 5917 5917 5916 5915 5913 5911 5907 5905 5906 5910 5913 5914 5915 5917 5918 5919 5921 5921 5922 5923 5923 5923
5903 5904 5906 5904 5905 5905 5906 5908 5910 5911 5912 5913 5915 5915 5916 5916 5916 5916 5916 5918 5920 5920 5920 5919 5917 5915 5914 5910 5907 5908 5911 5915 5917 5919 5919 5920 5921 5922 5923 5923 5923 5923 5923
5905 5905 5906 5906 5906 5906 5908 5910 5911 5911 5914 5916 5916 5918 5919 5919 5919 5920 5919 5919 5921 5921 5921 5920 5920 5918 5916 5915 5911 5910 5913 5917 5919 5921 5921 5923 5923 5923 5924 5924 5924 5924 5924
5905 5906 5907 5908 5907 5908 5910 5912 5912 5915 5917 5917 5920 5921 5921 5922 5923 5923 5924 5922 5922 5923 5923 5923 5922 5921 5919 5918 5918 5916 5917 5920 5921 5923 5923 5924 5924 5924 5924 5924 5924 5925 5925
5906 5907 5907 5909 5908 5910 5912 5914 5915 5918 5919 5921 5924 5925 5924 5926 5926 5924 5926 5924 5925 5926 5926 5926 5925 5924 5922 5922 5922 5921 5921 5921 5922 5923 5923 5923 5924 5925 5926 5926 5926 5926 5926
5907 5908 5908 5910 5910 5912 5914 5916 5918 5920 5921 5926 5926 5928 5931 5931 5930 5926 5926 5926 5927 5928 5928 5927 5927 5926 5925 5925 5924 5924 5923 5923 5922 5924 5924 5924 5925 5926 5927 5927 5927 5927 5926
5908 5908 5910 5911 5912 5914 5916 5918 5921 5923 5924 5928 5930 5934 5937 5936 5934 5931 5928 5928 5929 5930 5931 5929 5929 5927 5926 5928 5928 5927 5925 5924 5923 5923 5924 5925 5926 5927 5928 5928 5928 5928 5927
5908 5910 5911 5913 5914 5916 5918 5921 5923 5926 5928 5929 5933 5934 5937 5937 5935 5934 5930 5930 5930 5931 5932 5931 5931 5930 5930 5930 5931 5928 5927 5925 5926 5927 5927 5928 5929 5929 5929 5930 5930 5929 5929
5910 5911 5912 5915 5916 5917 5920 5923 5926 5929 5930 5929 5934 5935 5937 5937 5936 5933 5931 5933 5933 5933 5933 5932 5932 5931 5930 5931 5932 5931 5929 5928 5929 5930 5930 5931 5931 5931 5931 5931 5931 5931 5930
5910 5912 5913 5916 5918 5920 5922 5923 5927 5930 5933 5931 5932 5935 5934 5936 5934 5933 5934 5936 5937 5936 5935 5934 5933 5932 5931 5931 5930 5931 5931 5931 5932 5932 5931 5932 5932 5933 5932 5932 5933 5933 5933
5911 5911 5914 5916 5919 5921 5923 5925 5928 5930 5934 5936 5935 5936 5935 5935 5936 5937 5938 5938 5938 5937 5935 5935 5934 5933 5932 5932 5931 5932 5933 5932 5934 5934 5932 5932 5934 5933 5934 5934 5935 5934 5933
5910 5911 5914 5917 5919 5922 5925 5926 5927 5931 5933 5934 5936 5937 5937 5938 5939 5940 5939 5939 5939 5939 5937 5936 5934 5933 5932 5932 5932 5932 5934 5933 5935 5934 5934 5935 5935 5934 5935 5934 5935 5934 5932
5907 5911 5913 5916 5920 5923 5926 5928 5929 5931 5934 5936 5937 5938 5940 5940 5940 5941 5940 5940 5939 5939 5939 5936 5934 5933 5932 5934 5933 5935 5935 5935 5936 5935 5935 5936 5935 5934 5935 5936 5935 5934 5934
5905 5910 5913 5916 5920 5923 5927 5929 5931 5933 5935 5936 5938 5939 5940 5941 5942 5942 5942 5941 5940 5940 5938 5937 5936 5934 5933 5933 5935 5936 5936 5936 5937 5936 5936 5937 5935 5935 5935 5936 5934 5934 5934
5904 5908 5913 5916 5919 5924 5926 5929 5932 5934 5935 5937 5939 5940 5941 5943 5943 5944 5944 5944 5942 5941 5941 5940 5939 5937 5935 5936 5937 5936 5936 5936 5938 5938 5938 5936 5935 5936 5936 5935 5935 5934 5934
5902 5907 5911 5916 5919 5922 5926 5930 5932 5935 5937 5939 5940 5941 5942 5944 5945 5946 5945 5945 5944 5944 5943 5942 5941 5940 5938 5940 5938 5936 5937 5938 5939 5938 5938 5938 5938 5938 5937 5936 5934 5935 5933
5901 5906 5910 5915 5918 5921 5925 5929 5932 5935 5938 5939 5941 5942 5944 5945 5946 5947 5947 5947 5947 5946 5945 5944 5944 5943 5942 5941 5939 5940 5939 5940 5941 5941 5941 5940 5940 5938 5937 5937 5936 5935 5933
5900 5904 5909 5914 5918 5921 5925 5929 5932 5934 5937 5939 5941 5943 5945 5946 5948 5948 5949 5948 5947 5947 5947 5946 5946 5946 5945 5944 5944 5944 5943 5943 5942 5942 5941 5941 5939 5938 5937 5936 5936 5936 5935
5901 5904 5907 5912 5916 5920 5925 5928 5931 5934 5936 5939 5941 5943 5945 5947 5948 5949 5949 5949 5949 5948 5948 5949 5948 5947 5946 5946 5945 5945 5945 5944 5942 5942 5942 5943 5941 5938 5938 5939 5937 5937 5935
5900 5903 5907 5911 5915 5919 5923 5927 5930 5933 5936 5938 5941 5943 5945 5946 5948 5949 5949 5950 5949 5948 5948 5949 5949 5948 5947 5948 5947 5946 5946 5945 5944 5943 5942 5941 5939 5939 5940 5939 5939 5937 5936
Wind_Speed
13 13 10 9 9 10 11 12 11 11 11 11 10 10 11 11 13 15 15 14 13 12 10 9 6 6 6 6 7 8 7 6 5 5 4 5 7 8 9 9 9 8 7
14 11 10 10 7 10 10 10 10 10 10 10 10 9 9 11 12 13 14 12 12 11 11 9 8 6 6 6 6 8 8 7 6 6 6 6 7 10 9 9 8 6 5
13 12 9 9 9 9 10 10 10 10 10 10 10 9 9 11 11 11 11 10 10 10 10 9 8 7 7 4 4 6 8 9 7 8 9 10 11 10 9 10 7 6 5
12 9 9 11 10 9 10 11 11 10 10 10 9 10 10 12 11 11 10 9 9 10 9 8 8 7 8 10 4 4 6 10 10 11 11 12 12 10 9 9 8 6 6
10 8 10 12 11 9 10 10 11 11 11 10 12 12 12 12 12 12 11 10 10 9 10 11 11 10 11 9 5 6 8 9 12 14 14 15 13 9 10 8 7 6 6
8 8 10 11 10 9 10 10 12 12 11 13 15 14 13 13 13 13 12 12 11 13 15 16 15 14 13 11 6 6 10 12 13 15 15 13 11 8 7 6 5 5 5
6 8 8 10 9 10 11 12 12 11 12 15 17 17 15 15 15 15 15 15 17 17 17 16 16 15 16 15 8 9 13 11 13 14 13 12 11 8 7 5 5 5 5
4 8 6 9 10 11 11 13 12 11 14 17 18 17 17 18 18 20 21 19 17 16 15 15 17 19 20 22 18 13 15 12 10 11 11 11 10 8 6 5 4 4 3
4 8 6 7 12 12 13 13 12 12 18 20 18 19 20 20 20 20 20 19 17 15 16 17 18 20 21 24 24 19 19 12 13 13 13 11 9 8 6 4 4 5 4
6 8 7 9 13 13 11 13 12 17 21 20 20 20 20 18 17 17 18 19 17 17 16 16 17 19 21 21 23 23 23 16 14 14 12 10 10 9 8 7 6 6 5
8 9 9 11 13 12 12 14 18 21 21 21 20 17 16 13 15 19 17 17 19 17 17 16 17 17 19 20 19 18 17 11 10 7 6 6 4 4 5 5 5 6 6
8 10 11 12 13 13 13 18 21 21 20 21 15 11 12 12 14 20 18 15 16 13 15 15 15 16 18 17 18 15 16 15 12 6 5 6 4 2 5 6 7 7 7
7 10 12 13 13 14 15 18 22 19 15 14 10 11 11 10 14 16 18 16 16 13 15 14 14 14 16 16 17 15 17 14 14 12 11 9 8 4 5 8 9 10 10
6 9 11 13 12 14 16 18 20 18 13 10 15 9 8 11 12 13 17 15 14 13 12 13 10 11 11 11 13 14 16 14 13 14 13 12 12 10 10 10 10 11 11
7 9 11 13 13 15 16 16 17 16 11 8 10 8 11 12 14 14 18 15 14 11 12 10 9 8 10 8 10 13 13 13 14 16 13 14 11 11 11 11 11 13 13
9 10 11 13 13 14 15 16 14 13 11 9 8 9 10 13 15 16 17 14 12 10 10 11 8 9 10 9 8 10 10 11 14 15 14 13 12 13 12 10 11 12 13
9 11 12 13 14 15 13 14 13 12 10 10 8 6 9 12 13 12 14 12 11 8 10 10 7 7 7 7 8 6 9 8 11 12 12 11 12 12 13 13 14 14 14
9 13 15 14 14 14 13 15 12 10 9 7 7 6 8 9 9 10 12 12 9 8 9 8 7 6 5 6 5 6 7 5 9 8 8 10 10 11 12 11 13 13 15
13 14 16 14 13 13 15 15 13 9 8 7 6 7 6 6 9 11 10 12 9 9 9 11 13 11 6 3 1 5 6 6 6 6 7 8 8 8 10 12 13 13 14
17 17 18 16 14 14 15 14 12 9 7 7 5 5 6 7 9 11 10 12 12 10 13 15 15 15 12 6 6 6 6 7 7 6 6 7 6 10 11 13 11 11 10
20 18 19 19 16 15 16 16 13 10 8 7 5 4 4 6 8 10 8 8 10 14 13 14 17 20 19 12 10 8 8 8 9 10 11 10 10 9 11 9 9 10 10
23 21 20 19 19 18 19 17 14 11 10 9 8 6 4 6 7 7 8 8 9 10 12 14 13 19 22 14 11 11 9 9 10 12 12 11 10 9 10 10 10 10 10
18 19 19 20 20 20 21 18 14 11 11 10 8 6 6 7 7 6 7 6 6 7 9 11 11 12 16 15 14 12 11 11 11 9 9 8 9 9 9 8 9 10 11
17 18 18 18 20 20 19 18 16 15 13 10 9 9 8 8 7 5 6 5 5 6 7 9 8 9 8 9 9 8 6 7 7 6 10 8 9 9 10 12 11 11 10
15 17 18 19 20 20 19 18 17 15 12 12 12 11 9 7 6 4 4 4 5 5 6 5 6 7 5 6 6 3 3 5 7 8 7 6 6 9 9 8 9 10 13
16 15 16 17 19 18 19 18 17 15 14 14 12 10 9 8 5 3 2 3 4 3 3 5 5 5 3 4 5 5 5 5 8 10 8 8 6 5 6 6 7 13 16
Wind_Direction
104 99 98 98 105 109 111 113 116 124 134 136 127 114 110 123 117 108 105 106 110 107 106 101 98 85 83 81 78 65 62 76 95 116 141 159 163 162 160 141 133 126 108
114 102 103 95 103 107 111 114 117 124 129 123 113 106 113 130 125 116 111 105 99 96 87 81 76 70 71 66 63 56 63 74 96 116 130 139 152 153 147 143 149 131 106
94 92 85 104 108 104 108 108 114 119 118 113 105 109 118 120 121 113 105 101 94 86 82 73 68 65 59 58 78 69 59 66 84 102 125 131 143 144 140 133 129 109 83
94 88 102 112 105 101 105 106 111 110 110 103 106 106 114 114 114 112 103 95 86 82 80 74 62 51 53 58 60 117 77 75 92 104 111 118 129 129 118 121 113 101 74
95 88 100 104 102 106 103 109 111 113 106 108 104 109 113 111 107 100 100 96 91 85 74 69 63 52 47 52 50 158 108 87 89 103 111 113 119 111 112 111 96 80 60
75 81 102 100 103 110 109 113 113 110 112 106 107 110 110 112 108 104 101 97 91 84 82 75 67 59 48 42 67 129 150 103 95 100 106 108 111 105 100 96 79 60 52
79 92 103 104 109 113 114 116 113 117 117 109 109 110 114 113 107 105 97 93 89 84 77 67 57 53 49 44 75 119 150 121 109 106 108 111 106 105 98 88 71 61 45
101 100 101 113 113 117 116 117 116 120 118 110 107 109 106 107 109 106 101 94 85 81 78 76 67 59 57 60 77 114 136 106 105 102 102 102 98 99 90 82 64 54 43
119 106 113 125 118 121 122 122 122 124 110 108 112 114 113 112 109 104 100 93 87 82 72 67 65 66 63 63 72 100 122 116 112 107 93 92 87 89 80 69 52 47 46
127 115 123 133 125 127 128 124 123 112 112 115 114 115 111 109 104 94 89 90 84 77 74 67 69 67 65 66 71 88 118 101 104 107 115 101 90 80 74 71 65 60 52
135 126 126 134 132 130 136 126 119 116 118 120 115 113 111 107 105 92 82 81 82 76 70 66 67 68 68 66 71 85 106 114 120 115 131 114 96 82 57 57 52 37 21
146 130 130 136 134 137 133 128 120 124 130 119 115 104 99 97 92 87 86 79 79 82 56 65 64 65 69 66 70 70 85 85 92 113 155 161 182 174 39 37 39 31 28
150 138 136 138 142 140 136 131 125 132 135 115 143 122 94 94 86 79 84 76 65 71 56 57 56 57 61 67 69 71 75 88 87 85 89 96 100 109 57 61 59 51 45
152 148 142 141 147 141 144 133 128 135 132 114 118 107 100 88 87 77 73 65 60 59 53 60 61 66 71 66 74 76 78 82 89 85 88 87 79 78 70 64 55 48 42
165 159 151 148 152 147 147 137 133 138 131 122 116 110 103 100 74 62 59 50 47 55 50 42 43 54 69 72 78 79 77 82 83 83 81 77 78 72 65 55 49 46 43
173 169 159 155 158 158 154 140 133 129 124 115 102 93 81 80 62 52 49 49 49 55 52 53 32 38 44 47 54 85 77 80 82 82 83 79 76 73 66 59 57 49 43
184 171 171 163 164 162 160 145 136 135 131 123 113 90 78 67 58 54 64 57 53 42 47 43 32 17 25 31 43 56 83 77 82 79 77 84 74 70 68 56 49 43 44
184 184 173 174 174 171 167 160 149 139 130 118 108 96 80 75 68 65 55 57 46 39 39 26 19 24 0 16 29 41 72 69 65 72 70 62 54 57 60 54 49 33 33
189 185 176 179 180 179 173 157 157 153 142 128 115 103 94 77 69 61 52 57 47 51 55 42 30 27 34 46 84 60 51 68 64 65 48 48 42 38 44 38 42 37 34
198 181 181 181 180 182 175 166 164 163 150 133 129 115 94 81 71 66 51 40 51 52 46 51 48 48 51 71 100 75 52 58 73 58 57 49 44 35 39 38 33 37 45
203 189 183 184 178 180 179 177 171 168 158 151 152 143 109 90 74 71 64 55 44 50 54 54 58 57 63 73 83 76 83 73 74 73 67 69 61 56 53 50 42 36 29
192 191 187 188 185 184 187 185 177 172 166 165 164 159 137 115 99 79 66 57 54 52 42 46 51 58 67 75 93 89 90 88 83 82 76 74 78 63 62 49 37 37 38
192 193 191 191 195 192 193 192 182 181 181 179 174 167 162 139 126 96 77 65 60 54 43 50 45 59 68 62 66 81 80 84 88 86 93 81 68 61 56 50 55 55 35
200 203 196 201 199 201 194 194 190 190 191 174 175 182 178 153 138 120 94 78 51 44 41 43 43 60 81 84 72 59 70 76 65 36 48 40 40 51 62 52 52 44 29
204 208 207 205 205 208 204 202 200 195 189 181 184 192 175 164 156 119 91 65 52 26 23 19 31 24 54 83 88 80 17 24 8 13 5 19 30 27 42 37 31 33 22
205 204 211 205 209 211 211 209 206 198 192 192 195 188 185 189 184 152 102 79 48 22 0 358 358 353 26 69 93 86 58 54 36 10 10 3 22 29 20 35 32 18 11